sat.trackr.live / text

‹ back to catalog

ONEWEB-0205

NORAD 48226 · 2021-031S

PAYLOAD ACTIVE UNKNOWN

§ Identity

Operator
Country
UK
Launch date
2021-04-25
Launch site
VOSTO
Launch vehicle
Mass (kg)
RCS (m²)

Purposes: comms

External: N2YO · Heavens-Above · Gunter

§ Orbital elements

Epoch: 2026-05-25T03:36:16.867008Z

Period
109.55 min
Inclination
87.8948°
Eccentricity
0.0001753
Mean motion
13.14504143 rev/d
Perigee alt
1,204.5 km
Apogee alt
1,207.1 km
Semi-major
7,583.9 km
B*
-2.0285e-4
RAAN
294.2892°
Arg perigee
106.7976°
Mean anomaly
253.3347°
Rev number
24,524

§ Raw data

ONEWEB-02051 48226U 21031S   26145.15019522 -.00000062  00000+0 -20285-3 0  99912 48226  87.8948 294.2892 0001753 106.7976 253.3347 13.14504143245246

JSON: /api/v1/satellites/48226 · /tle

For live sub-satellite position, see the globe view (requires WebGL).

§ Visibility from observer

Set your observer location to see the next 7 days of passes ≥ 10°. The values pass through the URL so the page stays shareable.

No JS? Fill the form by hand. The geolocation button needs JavaScript.